Location: ???????
(54.9567°N, 38.2836°E)
Time: 20:08:54
(UTC+00:00)

SAR-Lupe-1 - Pass Details

Date: 14 April 2024
Orbit: 479 x 482 km, 98.1° (Epoch: 04 May)

Event Time Altitude Azimuth Distance (km) Brightness Sun altitude
Rises 00:21:58 0° 15° (NNE) 2,562 8.8 -15.9°
Reaches altitude 10° 00:24:02 10° 14° (NNE) 1,677 7.7 -15.7°
Maximum altitude 00:27:38 85° 289° (WNW) 493 4.0 -15.3°
Enters shadow 00:29:27 28° 200° (SSW) 946 5.0 -15.1°
